Home > Weather > Jacksonville > Past weeks

Flag for U.S.A. Weather for the Past 2 Weeks in Jacksonville, Florida, U.S.A.

Now
56 °F

Clear.


Feels Like: 52 °F
Forecast: 42 / 59 °F
Wind: 14 mph from North

Location: Jacksonville Naval Air Station

Current Time: Feb 13, 2016 at 6:59:01 AM

Latest Report: Feb 13, 2016 at 5:53 AM


Visibility: 10 mi

Pressure: 30.18 "Hg

Humidity: 53%

Dew point: 39 °F

Location of JacksonvilleLocation

Historic Weather in Jacksonville — Graph

°F

Jacksonville Temperature Yesterday

Maximum temperature yesterday: 77 °F (at 2:53 PM)
Minimum temperature yesterday: 52 °F (at 5:53 AM)
Average temperature yesterday: 64 °F

High & Low Weather Summary for the Past Weeks

 TemperatureHumidityPressure
High83 °F (Feb 3, 1:53 PM)94% (Feb 2, 8:04 AM)30.33 "Hg (Feb 2, 8:04 AM)
Low36 °F (Feb 10, 6:53 AM)16% (Feb 10, 1:53 PM)29.78 "Hg (Feb 8, 7:53 PM)
Average57 °F61%30.09 "Hg
* Reported Jan 29 4:53 AM — Feb 13 4:53 AM, Jacksonville, Weather by CustomWeather, © 2016

Note: Actual official high and low records may vary slightly from our data, if they occured in-between our weather recording intervals... More about our weather records

Advertising

Jacksonville Weather History for the Previous 24 Hours

 ConditionsComfort  
Time TempWeatherWind HumidityBarometerVisibility
4:53 AM
Sat, Feb 13
57 °FClear.8 mph81%30.15 "Hg10 mi
3:53 AM57 °FClear.7 mph90%30.13 "Hg10 mi
2:53 AM58 °FClear.7 mph87%30.12 "Hg10 mi
1:53 AM59 °FClear.9 mph87%30.12 "Hg10 mi
12:53 AM61 °FClear.12 mph81%30.12 "Hg10 mi
11:53 PM
Fri, Feb 12
62 °FClear.13 mph78%30.13 "Hg10 mi
10:53 PM63 °FClear.14 mph75%30.12 "Hg10 mi
9:53 PM64 °FPassing clouds.13 mph68%30.12 "Hg10 mi
8:53 PM65 °FClear.15 mph59%30.11 "Hg10 mi
7:53 PM67 °FClear.16 mph51%30.10 "Hg10 mi
6:53 PM69 °FPassing clouds.16 mph47%30.09 "Hg10 mi
5:53 PM72 °FPassing clouds.20 mph43%30.08 "Hg10 mi
4:53 PM75 °FPassing clouds.21 mph37%30.07 "Hg10 mi
3:53 PM77 °FPassing clouds.23 mph33%30.05 "Hg10 mi
2:53 PM77 °FPassing clouds.29 mph33%30.07 "Hg7 mi
1:53 PM76 °FPassing clouds.23 mph35%30.09 "Hg7 mi
12:53 PM74 °FPassing clouds.22 mph43%30.13 "Hg10 mi
11:53 AM72 °FPassing clouds.24 mph52%30.17 "Hg10 mi
10:53 AM69 °FScattered clouds.22 mph61%30.19 "Hg10 mi
9:53 AM63 °FScattered clouds.14 mph73%30.21 "Hg10 mi
8:53 AM57 °FScattered clouds.7 mph83%30.22 "Hg10 mi
7:53 AM53 °FScattered clouds.7 mph89%30.22 "Hg10 mi
6:53 AM52 °FPassing clouds.8 mph89%30.22 "Hg10 mi
Weather by CustomWeather, © 2016

See weather overviewHow to use our weather pages